Date String (YYYY-MM-DD hh:mm:ss) UTC,Instrument flags,Ambient pressure (hPa),Sample flow (lpm),Bypass flow (lpm),Sample temperature (°C),Ambient temperature (°C),ASC tube jacket temperature (°C),LED temperature (°C),Box temperature (°C),Sample RH (%),Span deviation,Mass concentration (μg/m³),Mass concentration (μg/m³),Mass concentration (μg/m³)
DateTimeUTC,F1_M11,P_M11,Q1_M11,Q2_M11,T1_M11,T2_M11,T3_M11,T4_M11,T5_M11,U1_M11,ZSPAN_M11,X0_M11,X2_M11,X1_M11
2023-03-13 06:00:00,,0826.3,5.00,0.00,22.5,21.6,00.0,31.1,24.3,15.3,0000.1,0010.67,0006.37,0005.91
2023-03-13 06:01:00,,0826.3,5.00,0.00,22.5,21.4,00.0,31.1,24.3,15.3,0000.2,0010.75,0006.47,0006.00
2023-03-13 06:02:00,,0826.3,5.02,0.00,22.5,21.3,00.0,31.1,24.2,15.4,0000.1,0010.72,0006.59,0006.12
2023-03-13 06:03:00,,0826.2,4.99,0.00,22.5,21.2,00.0,31.2,24.2,15.4,-000.4,0010.81,0006.72,0006.23
2023-03-13 06:04:00,,0826.2,5.00,0.00,22.4,21.1,00.0,31.2,24.2,15.3,-000.2,0011.01,0006.84,0006.33
2023-03-13 06:05:00,,0826.2,5.00,0.00,22.4,21.0,00.0,31.2,24.2,15.3,-000.0,0011.09,0006.91,0006.40
2023-03-13 06:06:00,,0826.2,5.00,0.00,22.4,20.9,00.0,31.2,24.1,15.3,0000.1,0011.09,0006.98,0006.49
2023-03-13 06:07:00,,0826.2,5.00,0.00,22.4,20.9,00.0,31.2,24.1,15.3,0000.7,0011.26,0007.03,0006.55
2023-03-13 06:08:00,,0826.2,5.00,0.00,22.4,20.8,00.0,31.1,24.1,15.3,0000.9,0011.07,0007.07,0006.61
2023-03-13 06:09:00,,0826.2,5.00,0.00,22.4,20.8,00.0,31.1,24.1,15.3,0000.8,0011.07,0007.12,0006.64
2023-03-13 06:10:00,,0826.2,4.99,0.00,22.4,20.7,00.0,31.1,24.1,15.2,0000.6,0011.09,0007.10,0006.62
2023-03-13 06:11:00,,0826.2,5.00,0.00,22.3,20.7,00.0,31.1,24.0,15.2,0000.9,0011.03,0007.05,0006.58
2023-03-13 06:12:00,,0826.2,5.00,0.00,22.3,20.7,00.0,31.1,24.0,15.3,0001.4,0011.01,0007.05,0006.58
2023-03-13 06:13:00,,0826.2,5.01,0.00,22.3,20.7,00.0,31.1,24.0,15.5,0001.3,0011.08,0007.05,0006.57
2023-03-13 06:14:00,,0826.2,5.00,0.00,22.3,20.8,00.0,31.1,24.1,15.5,0000.8,0011.29,0007.07,0006.58
2023-03-13 06:15:00,,0826.2,4.99,0.00,22.4,21.8,00.0,31.1,24.3,15.4,0000.4,0011.59,0007.08,0006.58
2023-03-13 06:16:00,,0826.2,5.04,0.00,22.5,22.9,00.0,31.1,24.5,15.3,-000.1,0012.07,0007.12,0006.59
2023-03-13 06:17:00,,0826.2,4.99,0.00,22.6,23.2,00.0,31.1,24.6,15.2,-000.4,0011.92,0007.11,0006.59
2023-03-13 06:18:00,,0826.2,5.01,0.00,22.6,22.8,00.0,31.2,24.6,15.0,-000.6,0011.69,0007.11,0006.56
2023-03-13 06:19:00,,0826.2,4.97,0.00,22.7,22.4,00.0,31.2,24.5,15.1,-000.6,0011.71,0007.14,0006.57
2023-03-13 06:20:00,,0826.2,5.00,0.00,22.7,22.1,00.0,31.2,24.5,15.2,-000.9,0011.74,0007.18,0006.61
2023-03-13 06:21:00,,0826.3,5.00,0.00,22.6,21.8,00.0,31.3,24.4,15.4,-000.8,0011.90,0007.28,0006.70
2023-03-13 06:22:00,,0826.2,5.00,0.00,22.6,21.6,00.0,31.3,24.4,15.4,-000.6,0012.61,0007.35,0006.78
2023-03-13 06:23:00,,0826.3,5.00,0.00,22.6,21.5,00.0,31.3,24.4,15.4,-000.9,0012.87,0007.39,0006.85
2023-03-13 06:24:00,,0826.3,5.00,0.00,22.6,21.3,00.0,31.3,24.4,15.5,-001.1,0013.00,0007.48,0006.92
2023-03-13 06:25:00,,0826.3,5.00,0.00,22.6,21.2,00.0,31.3,24.4,15.5,-000.5,0013.36,0007.56,0006.97
2023-03-13 06:26:00,,0826.3,5.00,0.00,22.6,21.2,00.0,31.3,24.3,15.5,-000.2,0013.36,0007.61,0007.04
2023-03-13 06:27:00,,0826.3,5.01,0.00,22.6,21.1,00.0,31.3,24.3,15.4,-000.1,0012.93,0007.65,0007.09
2023-03-13 06:28:00,,0826.2,5.00,0.00,22.5,21.0,00.0,31.3,24.3,15.2,-000.0,0012.91,0007.65,0007.09
2023-03-13 06:29:00,,0826.2,4.99,0.00,22.6,21.0,00.0,31.3,24.3,14.9,0000.0,0012.55,0007.60,0007.09
2023-03-13 06:30:00,,0826.2,4.97,0.00,22.5,21.0,00.0,31.3,24.3,15.0,0000.5,0012.53,0007.58,0007.08
2023-03-13 06:31:00,,0826.3,5.00,0.00,22.5,20.9,00.0,31.3,24.3,14.9,0000.7,0012.42,0007.51,0007.02
2023-03-13 06:32:00,,0826.2,5.00,0.00,22.5,20.9,00.0,31.3,24.3,14.8,0000.3,0012.20,0007.39,0006.92
2023-03-13 06:33:00,,0826.2,5.01,0.00,22.5,20.9,00.0,31.3,24.2,14.5,-000.3,0011.27,0007.22,0006.78
2023-03-13 06:34:00,,0826.2,5.00,0.00,22.5,20.9,00.0,31.3,24.2,14.5,-000.6,0011.39,0007.09,0006.64
2023-03-13 06:35:00,,0826.2,4.99,0.00,22.5,20.8,00.0,31.2,24.2,14.5,-001.1,0011.82,0006.94,0006.48
2023-03-13 06:36:00,,0826.2,5.00,0.00,22.5,20.8,00.0,31.2,24.2,14.7,-001.3,0011.89,0006.77,0006.36
2023-03-13 06:37:00,,0826.2,4.99,0.00,22.4,20.8,00.0,31.2,24.2,14.5,-001.4,0011.53,0006.66,0006.26
2023-03-13 06:38:00,,0826.2,5.00,0.00,22.4,20.8,00.0,31.2,24.2,14.2,-001.1,0011.24,0006.46,0006.09
2023-03-13 06:39:00,,0826.2,4.99,0.00,22.4,20.8,00.0,31.2,24.2,14.1,-001.0,0011.10,0006.30,0005.94
2023-03-13 06:40:00,,0826.4,5.00,0.00,22.4,20.7,00.0,31.2,24.1,14.1,-000.9,0011.00,0006.20,0005.83
2023-03-13 06:41:00,,0826.3,5.00,0.00,22.4,20.7,00.0,31.2,24.1,14.2,-001.5,0010.88,0006.10,0005.72
2023-03-13 06:42:00,,0826.2,5.01,0.00,22.4,20.7,00.0,31.2,24.1,14.2,-001.9,0010.92,0006.00,0005.61
2023-03-13 06:43:00,,0826.1,5.01,0.00,22.4,20.7,00.0,31.2,24.1,14.0,-001.5,0010.74,0005.89,0005.50
2023-03-13 06:44:00,,0826.3,5.00,0.00,22.4,20.9,00.0,31.1,24.1,14.1,-001.3,0010.71,0005.84,0005.44
2023-03-13 06:45:00,,0826.2,5.02,0.00,22.4,21.9,00.0,31.1,24.3,14.1,-000.9,0010.21,0005.77,0005.38
2023-03-13 06:46:00,,0826.2,4.99,0.00,22.6,22.9,00.0,31.2,24.6,13.9,-000.6,0009.57,0005.69,0005.33
2023-03-13 06:47:00,,0826.3,4.98,0.00,22.6,22.9,00.0,31.2,24.6,13.7,-000.3,0008.41,0005.55,0005.20
2023-03-13 06:48:00,,0826.2,4.99,0.00,22.7,22.5,00.0,31.2,24.6,13.7,-000.2,0008.28,0005.44,0005.10
2023-03-13 06:49:00,,0826.2,5.01,0.00,22.7,22.1,00.0,31.2,24.5,13.7,-001.1,0008.20,0005.39,0005.05
2023-03-13 06:50:00,,0826.2,5.00,0.00,22.6,21.7,00.0,31.2,24.4,13.7,-000.3,0008.13,0005.36,0005.02
2023-03-13 06:51:00,,0826.2,5.00,0.00,22.6,21.5,00.0,31.2,24.3,13.6,-001.8,0008.03,0005.30,0004.98
2023-03-13 06:52:00,,0826.2,5.00,0.00,22.6,21.3,00.0,31.2,24.3,13.6,-001.5,0007.98,0005.24,0004.93
2023-03-13 06:53:00,,0826.2,5.01,0.00,22.6,21.2,00.0,31.2,24.3,13.6,0000.0,0007.74,0005.17,0004.88
2023-03-13 06:54:00,,0826.2,5.01,0.00,22.5,21.1,00.0,31.3,24.3,13.7,0000.0,0007.95,0005.15,0004.85
2023-03-13 06:55:00,,0826.2,5.00,0.00,22.5,21.0,00.0,31.3,24.2,13.7,0000.0,0008.68,0005.13,0004.82
2023-03-13 06:56:00,,0826.2,5.00,0.00,22.5,21.0,00.0,31.3,24.2,13.7,0000.0,0008.77,0005.10,0004.80
2023-03-13 06:57:00,,0826.2,5.00,0.00,22.5,21.0,00.0,31.3,24.2,13.6,0000.0,0008.68,0005.03,0004.75
2023-03-13 06:58:00,,0826.2,4.99,0.00,22.5,20.9,00.0,31.2,24.2,13.5,0000.0,0009.31,0005.01,0004.71
2023-03-13 06:59:00,,0826.2,5.01,0.00,22.5,20.9,00.0,31.2,24.1,13.4,0000.0,0009.30,0004.99,0004.68
